Regional Weather Roundup
Issued by NWS

Home | Current Version | Previous Version | Graphics & Text | Print | Product List | Glossary On
Versions: 1 2 3 4 5 6 7 8 9 10 11 12 13 14 15 16 17 18 19 20 21 22 23 24 25 26 27 28 29 30 31 32 33 34 35 36 37 38 39 40 41 42 43 44 45 46 47 48 49 50
000
ASUS43 KIND 240359
RWRIN

WEATHER ROUNDUP FOR INDIANA
NATIONAL WEATHER SERVICE INDIANAPOLIS IN
1100 PM EST TUE JAN 23 2018

NOTE: "FAIR" INDICATES FEW OR NO CLOUDS BELOW 12,000 FEET WITH NO
SIGNIFICANT WEATHER AND/OR OBSTRUCTIONS TO VISIBILITY.

* - STATION DOES NOT REPORT WEATHER SUCH AS PRECIPITATION OR FOG.

+ - STATION NOT QUALITY CONTROLLED BY THE NATIONAL WEATHER SERVICE.
    USE DATA WITH CAUTION...ESPECIALLY DEWPOINT AND RELATIVE
    HUMIDITY OBSERVATIONS.

INZ001>003-010>013-019-020-240500-
NORTHWEST INDIANA

CITY           SKY/WX    TMP DP  RH WIND       PRES   REMARKS
GARY /AIRPORT/ CLOUDY    30  23  74 W9        30.15R WCI  22
KNOX *+        CLOUDY    30  27  86 W10       30.12R WCI  21
MICHIGAN CITY+ CLOUDY    30  28  93 NW9       30.13R WCI  22
MONTICELLO +   CLOUDY    30  25  81 NW8       30.14R WCI  23
RENSSELAER +   CLOUDY    32  25  74 NW6       30.14S WCI  26

$$

LMZ046-743>745-240500-
SOUTHERN LAKE MICHIGAN

STATION/POSITION TIME  TEMP    WIND        PRES    WAVE
                       AIR SEA DIR/SP/G            HT
                 (UTC) (F)     (DEG/KT/KT) (MB)    (FT)
BURNS HARBOR     0340   30     310/ 12/ 14 1020.7R
MICHIGAN CITY    0330   30     290/ 16/ 18   N/A

$$

INZ004-005-014>016-021>024-240500-
NORTH CENTRAL INDIANA

CITY           SKY/WX    TMP DP  RH WIND       PRES   REMARKS
GOSHEN         CLOUDY    31  27  85 NW10      30.07R WCI  22
SOUTH BEND     CLOUDY    30  25  81 NW13      30.09R WCI  20

$$

INZ006>009-017-018-025>027-240500-
NORTHEAST INDIANA

CITY           SKY/WX    TMP DP  RH WIND       PRES   REMARKS
FORT WAYNE     CLOUDY    31  28  89 W12       30.06R WCI  22
KENDALLVILLE + CLOUDY    31  25  80 NW8G20    30.03R WCI  23

$$

INZ028-029-035-036-043>045-051>053-240500-
WEST CENTRAL INDIANA

CITY           SKY/WX    TMP DP  RH WIND       PRES   REMARKS
CRAWFORDSVL +  CLOUDY    29  29 100 MISG      30.13R
GREENCASTLE +  CLOUDY    32  27  80 NW7       30.16R WCI  26
LAFAYETTE      CLOUDY    31  27  85 NW6       30.14R WCI  25
TERRE HAUTE    CLOUDY    32  28  85 NW7       30.18R WCI  26

$$

INZ030>032-037>040-046>048-054>057-064-065-240500-
CENTRAL INDIANA

CITY           SKY/WX    TMP DP  RH WIND       PRES   REMARKS
INDIANAPOLIS   FRZ DRZL  31  28  89 W9        30.14R WCI  23
-EAGLE CREEK   CLOUDY    45  27  49 W7        30.13R
MT COMFORT *+  CLOUDY    30  27  86 NW14      30.13R WCI  20
SHELBYVILLE    CLOUDY    32  26  78 NW9       30.13R WCI  24

$$

INZ033-034-041-042-049-050-058-059-240500-
EAST CENTRAL INDIANA

CITY           SKY/WX    TMP DP  RH WIND       PRES   REMARKS
MUNCIE         CLOUDY    32  25  75 NW15      30.09R WCI  22
RICHMOND +     FLURRIES  30  28  93 W16       30.08R WCI  19

$$

INZ060-061-067>069-081>083-085>088-240500-
SOUTHWEST INDIANA

CITY           SKY/WX    TMP DP  RH WIND       PRES   REMARKS
EVANSVILLE     CLOUDY    34  28  79 W6        30.23S WCI  29
HUNTINGBURG +  CLOUDY    33  29  85 W8        30.22R WCI  26

$$

INZ062-063-066-070>080-084-089>092-240500-
SOUTH CENTRAL AND SOUTHEAST INDIANA

CITY           SKY/WX    TMP DP  RH WIND       PRES   REMARKS
BLOOMINGTON    CLOUDY    32  28  85 NW8       30.16R WCI  25
FRENCH LICK *+ CLOUDY    32 N/A N/A W7        30.19R WCI  26
MADISON *+     CLOUDY    32  28  86 W9        30.16S WCI  24
SEYMOUR +      CLOUDY    34  28  80 W7        30.17R WCI  28

$$





USA.gov is the U.S. government's official web portal to all federal, state and local government web resources and services.